Погода в Упорниковской

Россия / Волгоградская область     50°14′31″N   41°50′01″E
темп.,
°C
ветер,
м/с
пор.,
м/с
влажн.,
%
обл.,
%
осадки,
мм/ч
давл.,
гПа
погр.,
м
24 сентября, пт
пт2400:00+8ююв00685 0.0 101310
03:00+8юз0070100 0.0 101210
06:00+8юв237393 0.0 101233
09:00+10ю3660100 0.0 1012299
12:00+14ю4652100 0.0 10111181
15:00+15ю5650100 0.0 10091406
18:00+12ю2564100 0.1 1009117
21:00+12ююв487386 0.5 1008221
25 сентября, сб
сб2500:00+11ю247997 0.0 1008111
03:00+9зюз1272100 0.0 100810
06:00+9ю2270100 0.0 100815
09:00+10ююз1367100 0.0 1008199
12:00+10вюв1179100 0.6 1009218
15:00+9ссз2291100 3.3 1010146
18:00+9ссз2392100 1.0 1011163
21:00+9з249198 1.0 1012135
26 сентября, вс
вс2600:00+8з35939 0.0 1013104
03:00+7з35915 0.0 101383
06:00+7зюз359086 0.0 101279
09:00+11юз5878100 0.0 1011431
12:00+9юз61192100 1.8 1009669
15:00+12зюз51088100 2.3 1008755
18:00+11зсз511805 0.7 1007318
21:00+9сз7128676 0.8 1008589
27 сентября, пн
пн2700:00+8зсз6118897 0.0 1008654
03:00+9зсз6990100 0.1 1009531
06:00+9с5109299 0.4 1010606
09:00+9ссз61189100 0.5 1013568
12:00+12с687783 0.1 1015675
15:00+14с685961 0.7 10161405
18:00+13ссз61059100 0.1 1018429
21:00+11с4972100 0.1 1019418
28 сентября, вт
вт2800:00+10с4782100 0.1 1020409
03:00+9с4787100 0.2 1021336
06:00+9ссв4892100 0.2 1022360
09:00+11ссв5780100 0.2 1023594
12:00+10св4582100 0.0 1025523
15:00+11с357599 0.1 1025606
18:00+9ссв238075 0.1 102634
21:00+10ссв227073 0.1 102642